Weather in Petrykivka

Ukraine / Dnipropetrovsk Region     47°59′30″N   34°26′31″E
temp.,
°C
wind,
m/s
gust,
m/s
humid.,
%
clouds,
%
prec.,
mm/h
press.,
hPa
HPBL,
m
26 october, tue
tue2600:00+2ese22580 0.0 103418
03:00+1se22570 0.0 103411
06:00+1ese22570 0.0 103412
09:00+3se34455 0.0 1034177
12:00+8sse34325 0.0 1033802
15:00+9sse33261 0.0 1031975
18:00+6se33355 0.0 103124
21:00+4sse33405 0.0 103035
27 october, wed
wed2700:00+2sse35714 0.0 103085
03:00+1sse33695 0.0 103038
06:00+1sse23760 0.0 102922
09:00+4sse23630 0.0 1029144
12:00+10ssw44410 0.0 1027735
15:00+11wsw34363 0.0 1025980
18:00+8w22450 0.0 102514
21:00+6wsw225382 0.0 102513
28 october, thu
thu2800:00+6w337495 0.0 102534
03:00+5wnw3384100 0.0 102532
06:00+5w2281100 0.0 102521
09:00+7w3466100 0.0 1026123
12:00+13w564910 0.0 1025719
15:00+16w67425 0.0 10221180
18:00+12wsw475797 0.0 1022110
21:00+12w41060100 0.0 1022278
29 october, fri
fri2900:00+12nw4965100 0.0 1022358
03:00+11nnw497952 0.0 1023375
06:00+9n489261 0.0 1025171
09:00+9nne47865 0.0 1026250
12:00+14nne44575 0.0 1027921
15:00+15nne34465 0.0 10271271
18:00+12ne33591 0.0 102923
21:00+9e510705 0.0 1030230
30 october, sat
sat3000:00+7e48810 0.0 1032169
03:00+6e47810 0.0 1032131
06:00+5ese37795 0.0 1033116
09:00+6ese47655 0.0 1034252
12:00+11se56385 0.0 1034686
15:00+13se45290 0.0 1033884
18:00+9se33350 0.0 103322
21:00+7se46430 0.0 103492